Flugschule und Pilotenausbildung

Wir bieten eine professionelle und umfassende Ausbildung durch unsere erfahrenen Piloten, Fluglehrer und Prüfer, die Sie zum Erwerb der folgenden Lizenzen führen:

 

Schulungsräume

Je nach Teilnehmerzahl findet der Unterricht in zwei vollausgestatteten Räumen statt.

 Bis 5 Teilnehmer in Feldgeding bei Dachau:

Schulungsraum Feldgeding

Bei 6 oder mehr Teilnehmern in Gröbenzell:

Schulungsraum Gröbenzell

Flugzeuge

Wir schulen auf unseren eigenen Flugzeugen. Mehr Informationen zu unseren Flugzeugen finden Sie hier ...

 

Flugwetter Augsburg

[source: ADDS]
METAR
EDMA 180220Z AUTO VRB02KT 9000 // FEW007/// 16/15 Q1019 =
TAF
TAF EDMA 171700Z 1718/1803 23005KT CAVOK BECMG 1719/1721 VRB02KT BECMG 1800/1803 2500 BCFG =